Theta_e
342 332 342 348 359 363 365 363 362 360 358 348 351 354 354 352 355 361 349 349 349 346 347 348 348 345 345 350 351 350 349 346 349 349 351 350 349 350 351 352 352 353 353 353 353 353 352 351 349
339 343 344 353 363 369 366 362 361 358 355 353 350 351 353 356 350 350 349 349 349 348 351 348 347 346 350 350 350 351 349 351 347 350 351 351 350 350 352 352 352 350 353 353 353 352 351 348 350
347 351 355 362 365 364 365 362 358 356 355 354 352 349 353 354 350 349 349 350 350 351 347 351 345 346 350 347 349 347 347 347 350 350 351 349 351 351 352 352 350 352 351 349 353 352 345 349 346
351 353 355 368 372 368 363 359 355 359 357 353 348 353 351 349 349 349 349 348 347 346 341 348 347 346 347 349 348 350 349 350 347 349 351 346 352 351 352 352 352 352 352 353 352 347 340 342 346
351 356 366 368 368 361 354 351 352 360 359 354 350 355 352 348 348 349 346 345 346 339 342 350 348 343 350 351 349 351 349 350 347 350 352 351 351 351 352 352 352 352 352 352 353 337 342 346 344
355 357 369 372 366 356 352 351 351 359 356 351 352 351 349 347 346 345 347 347 344 342 343 350 351 349 348 352 351 349 351 346 348 351 350 351 351 352 352 352 352 352 352 352 346 338 341 343 344
359 363 369 369 366 361 356 353 356 358 353 351 349 351 347 346 346 349 348 346 345 345 347 349 350 351 351 352 347 346 350 349 351 351 351 351 351 352 352 352 352 352 352 351 341 335 337 343 345
359 360 366 366 365 362 354 355 356 358 354 347 347 351 349 347 348 350 349 347 348 349 347 346 346 345 347 347 345 344 351 347 350 350 350 351 351 350 351 349 351 350 349 349 338 333 334 342 345
355 363 367 364 361 359 354 356 354 355 356 352 347 347 345 347 348 347 348 350 351 350 351 347 348 347 344 339 343 349 345 340 344 346 345 344 346 348 345 346 349 350 348 339 335 334 337 341 343
356 362 362 357 356 357 356 356 359 355 358 356 348 346 345 347 347 348 346 347 349 350 350 350 349 348 340 340 337 341 344 347 346 343 347 349 345 343 341 343 344 343 342 337 333 337 342 342 343
352 362 358 354 353 354 356 356 357 358 358 351 348 347 345 347 349 348 343 342 348 349 350 349 349 347 346 344 345 346 348 347 346 345 347 346 347 343 341 341 344 345 345 346 343 343 347 347 345
360 358 356 356 356 356 360 359 359 359 358 348 345 344 343 345 348 348 346 344 347 349 351 352 351 347 348 347 347 346 347 347 347 347 346 346 345 343 344 346 345 346 344 345 344 346 349 349 346
356 352 355 356 355 357 357 360 359 358 353 347 345 344 343 342 344 345 342 346 349 350 351 349 344 347 349 349 348 347 348 345 344 347 348 346 346 345 345 347 347 347 344 345 346 347 349 344 344
351 349 350 356 354 354 358 358 354 354 348 348 346 345 343 343 342 341 342 349 349 351 350 347 346 349 346 346 346 346 345 344 345 348 346 348 348 347 342 346 346 344 345 347 347 347 346 343 342
354 349 351 354 357 358 358 362 361 351 352 349 347 345 344 344 343 342 342 347 351 350 348 347 348 350 346 345 344 345 346 346 347 346 345 347 347 348 347 347 348 347 347 344 346 346 346 342 343
351 351 356 349 349 359 356 366 357 349 354 352 348 347 345 344 343 344 342 342 350 351 348 346 348 348 348 347 343 349 346 348 350 351 345 344 348 346 346 346 345 348 349 345 345 346 346 344 345
335 344 350 352 349 357 356 364 360 353 354 352 349 347 346 345 344 344 342 341 350 349 348 349 344 344 346 347 348 347 348 348 348 347 348 350 347 347 348 349 347 350 348 347 345 346 347 347 346
338 340 342 349 346 357 355 354 358 354 354 352 349 348 346 346 345 344 342 341 341 345 345 350 345 347 345 348 350 348 347 348 349 348 347 351 351 352 349 345 348 348 348 346 346 346 346 344 345
333 338 340 347 349 354 353 350 351 353 353 353 350 348 346 345 345 345 342 343 342 345 345 349 349 347 347 344 350 348 350 345 348 349 348 349 348 350 349 349 349 349 347 346 345 348 346 346 343
329 329 335 347 354 356 353 351 346 343 352 351 349 349 347 346 344 345 343 344 344 346 345 347 346 348 347 343 349 349 349 349 349 349 350 350 348 351 350 347 349 344 347 349 347 348 347 346 344
328 328 331 348 348 354 356 362 354 351 356 351 350 351 347 347 346 344 343 343 346 346 345 347 348 348 348 343 347 350 349 349 348 349 350 352 350 349 350 348 349 348 348 348 348 346 345 349 339
326 327 329 347 347 355 356 361 359 362 357 354 351 351 348 347 346 345 345 347 347 347 346 346 350 348 346 350 351 350 349 349 347 346 351 352 352 350 352 351 351 348 350 346 348 350 347 349 348
326 327 332 343 343 344 354 355 359 360 362 358 356 352 349 347 347 346 348 348 348 347 348 346 349 349 344 349 351 350 347 349 351 350 352 352 351 351 352 351 352 348 345 346 347 349 347 347 349
327 329 333 338 340 344 337 343 358 365 360 360 353 348 351 351 349 345 347 348 348 348 349 347 350 351 348 346 350 351 349 348 347 351 350 351 351 348 347 348 351 347 344 344 346 350 349 344 346
327 331 334 333 341 345 338 341 359 358 358 355 353 348 345 350 349 346 347 350 350 348 349 350 349 353 350 346 349 349 351 348 341 348 348 350 351 352 351 349 351 348 348 349 345 350 349 344 343
327 329 333 337 337 338 332 356 355 348 346 346 341 348 347 349 350 350 348 349 349 348 349 350 347 351 352 352 348 348 349 348 351 348 347 350 350 351 351 351 351 351 343 350 348 349 348 348 339
327 329 329 332 329 331 346 353 351 344 346 348 346 348 348 350 349 350 348 348 349 347 347 350 349 349 353 351 348 350 351 351 350 348 347 350 345 348 351 352 350 350 349 350 352 349 344 349 348
323 331 331 332 339 337 357 357 361 356 351 340 335 335 336 337 345 344 341 342 347 348 348 352 352 351 353 354 353 352 351 351 351 353 351 352 350 349 350 348 349 352 352 350 351 350 348 348 344
332 333 334 330 332 334 351 353 348 350 340 334 330 327 330 330 331 335 336 337 343 343 346 350 351 352 349 352 353 353 353 352 349 351 350 353 351 350 349 349 346 349 351 353 351 349 351 350 346
326 332 333 331 333 339 348 349 344 340 335 331 329 325 324 326 327 327 327 329 334 339 342 343 344 346 348 352 352 351 355 355 352 350 349 355 351 352 349 345 348 352 351 353 351 351 347 350 350
Wind_Speed
7 9 6 3 1 4 3 7 1 6 6 20 8 14 9 9 6 6 30 32 28 27 23 18 14 15 14 15 14 13 14 14 13 15 14 13 14 14 16 16 16 17 18 18 18 18 18 19 21
8 9 9 3 1 3 3 4 8 5 3 19 19 21 21 12 17 23 25 32 27 27 23 20 16 17 15 14 14 13 13 13 13 14 14 15 14 15 15 16 16 17 17 17 17 17 16 19 19
11 10 1 2 3 6 7 7 2 3 7 13 7 13 10 16 20 17 36 34 29 26 24 21 18 17 15 14 14 12 13 13 14 13 14 14 14 14 15 16 17 17 17 18 16 16 17 16 18
5 2 2 2 6 2 6 4 2 2 11 9 18 14 15 27 18 36 38 34 33 26 25 21 18 18 16 15 14 13 13 13 13 12 12 14 14 14 16 15 16 16 16 16 17 15 19 18 17
13 1 2 2 11 5 5 3 2 9 7 7 26 24 22 27 38 41 38 38 33 28 25 20 18 16 15 15 13 13 13 13 14 13 12 13 14 15 16 16 15 15 15 16 15 17 18 17 20
2 1 2 1 8 9 4 2 2 8 8 16 25 22 12 34 36 35 40 38 30 30 25 20 19 16 15 14 14 13 11 13 14 12 12 13 14 15 15 15 14 14 14 14 14 16 17 18 19
3 1 2 3 11 8 7 6 3 9 16 17 19 26 14 20 38 38 37 32 33 28 25 21 19 15 15 14 14 13 12 13 13 13 14 13 14 15 15 15 16 15 16 15 14 16 18 19 17
2 2 3 5 7 4 8 7 6 10 13 18 22 14 17 26 33 36 37 37 32 29 25 21 19 17 16 14 13 13 13 13 14 13 14 15 14 15 16 17 16 15 15 13 13 14 16 18 18
2 3 2 5 13 9 11 7 9 4 7 9 11 17 21 35 36 32 29 32 31 28 27 24 22 18 15 14 13 13 13 14 14 15 18 17 16 16 15 18 16 15 14 14 13 13 14 16 16
7 3 3 4 11 12 14 7 12 3 4 6 20 22 26 44 34 30 24 26 29 31 24 27 22 17 17 16 17 17 18 14 8 15 17 14 11 13 15 16 16 16 15 16 15 13 11 8 9
6 5 7 14 17 16 15 8 9 8 7 20 22 24 20 36 35 30 24 33 32 24 32 29 24 20 19 17 18 16 14 12 11 10 14 14 14 12 15 14 14 16 15 14 13 15 7 2 3
8 12 14 15 18 16 12 14 9 6 2 14 23 20 16 22 26 28 25 24 34 31 29 29 25 21 19 14 17 18 18 17 11 11 13 15 17 15 13 9 10 8 7 12 9 3 4 6 3
3 4 2 13 16 15 13 16 17 10 10 19 21 19 11 8 25 30 25 29 38 35 33 30 22 20 15 11 16 16 14 14 16 10 10 17 14 11 11 8 6 5 6 8 12 4 3 11 12
6 7 9 13 14 16 14 13 8 6 16 19 20 15 11 10 14 24 29 32 31 33 31 25 21 15 14 19 21 23 17 15 13 11 14 15 17 11 12 11 10 6 8 9 7 6 6 10 8
21 7 16 6 21 11 19 7 8 10 8 20 19 14 12 13 15 19 31 33 36 35 32 25 23 18 16 18 18 17 11 17 13 11 13 15 13 9 6 12 13 12 12 11 7 8 8 11 9
7 7 4 8 18 16 9 6 8 7 10 16 19 14 12 13 18 21 26 38 37 33 30 27 24 20 18 13 20 10 13 13 12 9 11 10 9 9 10 11 10 9 9 7 9 10 8 6 8
6 6 9 5 15 18 6 9 8 9 13 19 18 15 11 12 10 22 29 31 36 31 27 26 23 21 15 15 13 13 16 15 11 11 6 8 8 7 7 7 9 7 8 9 5 3 5 6 6
6 8 7 12 7 14 17 14 10 11 5 20 18 16 11 13 9 26 30 33 28 25 21 23 26 24 17 18 12 13 14 13 9 14 10 10 8 6 5 10 11 8 13 12 6 8 8 4 6
10 8 13 6 8 13 18 3 20 13 4 20 17 15 14 12 15 15 25 30 31 27 23 20 28 25 20 19 11 13 12 13 11 7 9 9 8 9 7 8 8 7 10 11 10 7 6 4 2
15 12 5 7 13 12 10 11 13 10 9 19 16 12 16 13 13 15 24 27 33 30 28 19 26 26 22 18 14 18 16 13 10 10 8 7 9 9 10 8 7 5 8 8 6 1 2 2 4
13 8 6 9 8 17 2 5 9 10 13 13 11 8 9 16 16 13 22 26 31 33 30 25 26 24 21 16 14 8 14 14 15 14 11 11 6 11 7 10 6 13 6 7 5 3 2 4 1
8 10 13 18 12 9 16 5 6 11 16 16 15 12 9 8 14 12 20 21 29 32 32 28 24 25 22 18 12 16 14 10 10 11 15 13 9 10 5 7 6 8 5 6 6 3 3 5 8
9 10 2 8 5 4 17 1 7 17 13 15 11 12 13 12 10 12 18 26 29 31 33 31 26 26 24 22 11 16 15 13 7 12 15 15 12 10 9 8 6 7 6 10 5 4 2 5 7
10 9 8 8 7 5 9 15 4 16 17 15 5 10 13 14 10 11 20 25 29 34 28 32 29 27 23 25 15 13 15 10 12 16 12 15 12 10 11 11 10 7 8 7 7 4 1 1 5
5 4 3 1 2 3 13 1 1 13 14 14 14 22 14 17 18 16 13 22 23 27 26 33 32 28 25 25 19 15 10 8 11 10 11 15 12 13 13 14 12 11 9 11 7 6 4 3 2
7 6 4 4 3 6 6 6 4 9 16 18 8 13 10 9 3 9 15 28 28 30 33 32 34 30 28 24 23 19 14 12 10 17 14 13 14 15 15 13 14 12 12 11 9 10 10 5 4
8 10 10 3 6 2 6 7 10 9 9 14 14 13 14 10 10 5 3 3 17 29 28 32 33 32 29 27 25 24 21 19 15 16 12 14 17 13 15 15 11 12 12 10 11 11 7 9 8
9 3 6 1 2 3 7 7 9 10 14 13 12 11 12 12 9 11 8 12 11 4 10 29 32 34 32 28 26 25 24 22 20 13 13 20 15 14 11 18 15 14 14 12 10 8 11 11 11
1 2 1 2 1 5 4 3 7 13 14 14 10 9 9 11 11 7 5 11 16 15 15 8 11 19 28 32 28 25 23 21 21 18 14 14 12 13 18 19 16 14 12 13 14 12 12 9 13
4 6 8 4 6 4 3 2 7 10 12 14 11 10 8 9 8 9 13 14 13 18 16 16 11 15 10 7 22 27 26 23 21 21 20 16 16 16 14 14 16 17 17 15 14 14 14 12 17
Wind_Direction
227 200 167 227 153 116 222 180 164 2 114 102 82 91 107 141 160 149 143 139 143 141 138 135 130 117 112 103 98 95 86 87 84 80 85 89 91 96 91 93 93 94 93 94 96 97 96 101 100
205 220 210 251 171 104 315 154 149 220 83 89 81 86 75 81 97 124 120 134 140 137 138 134 125 119 110 108 99 96 95 93 91 93 86 87 97 95 95 93 95 98 96 98 103 102 104 107 101
212 252 144 200 226 161 166 224 258 27 41 93 89 95 84 112 118 122 132 134 131 136 138 129 125 123 117 108 102 98 95 97 93 95 92 94 93 97 98 96 98 101 102 104 105 105 110 105 103
209 327 327 280 268 205 163 168 342 324 41 19 104 81 114 122 114 132 134 132 136 138 136 129 121 124 114 110 106 103 100 100 104 100 98 97 97 101 102 102 104 105 107 106 107 110 113 107 99
236 92 254 240 66 91 69 104 52 86 90 51 108 112 110 120 133 138 133 134 135 134 133 128 124 123 122 119 116 112 114 111 104 104 104 104 101 105 105 106 106 109 114 107 106 117 120 111 100
351 121 285 32 106 100 62 251 295 95 129 117 102 115 117 133 136 132 131 136 138 133 133 129 129 130 127 122 117 118 112 112 109 104 103 108 108 107 106 107 108 109 119 118 112 119 124 119 103
204 291 319 166 126 133 161 223 244 110 137 109 122 121 132 137 135 130 132 132 134 137 134 133 132 129 127 126 121 117 117 114 111 109 110 111 112 111 109 109 113 111 114 124 118 121 128 123 111
181 212 217 153 138 110 149 188 126 128 111 125 129 135 149 129 127 132 133 136 139 139 135 140 140 136 132 129 124 125 121 115 112 110 116 116 117 116 113 117 120 120 118 119 116 119 130 132 127
61 307 280 112 137 138 162 193 114 339 126 147 148 139 149 138 139 126 128 137 140 143 146 142 135 129 130 129 130 128 116 112 114 117 118 113 114 114 122 120 120 117 114 109 112 120 130 139 134
22 312 345 126 127 145 168 189 106 207 227 148 137 139 151 139 135 134 144 139 146 151 158 153 145 138 134 131 127 127 126 118 121 127 129 125 125 126 123 118 117 115 110 99 107 119 127 144 155
206 239 116 118 123 150 169 140 108 185 167 146 146 151 164 134 144 143 157 152 154 150 147 154 146 140 144 138 134 135 136 137 126 106 116 132 143 134 123 122 129 120 119 121 124 114 116 226 263
139 255 259 142 148 153 153 114 108 195 235 155 141 156 170 148 147 161 157 153 137 147 149 149 152 153 152 153 149 139 134 144 145 112 141 148 145 143 141 143 141 126 134 137 141 134 303 293 157
151 196 178 159 152 143 153 125 141 159 248 141 142 164 169 158 157 159 145 139 140 139 146 149 144 157 173 177 181 174 168 151 136 135 123 159 171 133 154 165 154 177 135 115 127 125 117 83 93
337 331 288 195 160 149 143 127 118 185 151 151 153 172 164 152 157 134 138 138 141 140 144 148 143 126 144 131 138 146 139 136 146 142 135 134 157 146 121 151 160 133 122 127 116 102 94 119 100
182 80 288 222 158 160 121 157 159 176 180 148 165 177 165 167 144 128 138 143 141 145 148 153 142 130 130 141 131 140 160 158 152 150 156 141 138 154 152 133 148 128 132 119 138 142 133 121 116
183 143 219 172 159 150 152 164 152 188 152 153 168 181 163 171 146 139 132 136 146 146 147 158 155 145 134 137 138 114 153 149 141 161 151 149 170 163 139 162 161 148 146 136 123 160 139 128 158
261 209 213 333 152 150 156 118 61 213 177 169 173 184 169 153 138 133 141 142 139 149 147 152 163 165 158 156 143 143 133 159 166 163 156 140 178 158 159 171 151 164 223 171 126 164 179 205 180
228 231 261 154 208 168 92 103 124 258 275 178 177 182 155 152 147 134 142 154 153 140 150 163 162 160 157 162 164 163 163 167 169 179 178 167 172 188 177 170 157 123 168 156 126 146 148 173 208
257 209 229 165 43 104 115 121 156 194 255 171 179 169 159 155 146 160 144 149 158 154 157 149 165 163 161 175 179 173 186 160 173 182 189 170 178 176 179 149 158 155 177 170 157 136 163 248 173
254 267 271 137 91 89 155 185 226 184 206 175 167 162 166 154 170 155 153 152 158 162 166 163 171 166 168 182 186 189 191 175 184 187 188 192 170 173 183 164 155 116 160 174 146 114 44 53 178
242 246 228 161 132 97 124 212 186 226 200 162 161 155 160 161 175 167 161 161 160 166 171 170 172 170 174 189 196 174 185 177 180 181 184 196 170 172 179 148 146 156 187 175 149 105 119 352 144
245 234 255 141 152 162 169 222 216 184 174 178 176 163 185 160 175 178 166 154 161 168 174 179 179 182 184 186 198 184 180 174 217 211 177 184 168 179 191 158 142 182 195 188 151 193 96 40 1
244 252 228 136 192 195 191 239 214 178 192 180 180 180 182 192 177 185 161 160 161 169 176 181 186 188 195 198 187 199 183 194 164 187 200 178 177 186 188 168 176 183 227 187 157 166 142 62 31
255 271 306 182 194 252 245 190 173 186 182 167 57 314 199 194 190 190 183 174 171 172 177 185 186 191 199 204 202 186 190 178 171 156 159 168 173 177 195 193 189 190 196 190 191 200 95 108 32
255 311 295 5 78 182 257 297 211 132 145 143 162 217 232 216 190 191 181 178 172 182 178 185 187 189 198 205 205 197 192 199 189 191 217 183 192 206 207 191 200 198 205 200 205 226 208 223 325
237 216 188 161 166 234 236 138 215 162 154 172 234 184 210 184 223 192 177 172 179 183 173 179 190 192 196 205 206 204 191 203 202 185 197 194 198 199 201 199 218 218 203 180 203 224 227 236 253
246 249 239 307 226 206 126 53 39 90 101 72 58 71 42 49 76 42 108 22 205 180 177 179 188 195 200 203 205 207 198 195 207 212 199 199 197 196 186 193 209 209 203 208 208 225 218 242 273
203 279 258 332 210 191 135 149 152 164 113 82 56 52 46 33 53 71 31 48 43 169 199 184 189 194 199 199 204 206 207 203 203 203 216 213 197 187 198 200 193 200 217 198 212 224 229 244 252
116 330 14 56 137 175 129 360 21 106 101 95 77 60 47 45 32 43 39 80 72 46 69 135 195 210 205 201 204 206 212 213 208 206 199 203 203 206 210 203 203 197 214 213 213 223 229 227 230
301 209 182 151 290 83 58 100 91 93 90 101 103 78 69 72 60 51 34 51 90 90 89 73 83 65 28 277 228 211 209 207 210 215 208 207 203 203 215 217 193 209 210 207 220 223 230 241 230